Regional Weather Roundup
Issued by NWS Newport/Morehead, NC

Current Version | Previous Version | Graphics & Text | Print | Product List | Glossary Off
Versions: 1 2 3 4 5 6 7 8 9 10 11 12 13 14 15 16 17 18 19 20 21 22 23 24 25 26 27 28 29 30 31 32 33 34 35 36 37 38 39 40 41 42 43 44 45 46 47 48 49 50

000
ASUS42 KMHX 250925
RWRMHX
WEATHER ROUNDUP FOR EASTERN NORTH CAROLINA
NATIONAL WEATHER SERVICE NEWPORT/MOREHEAD CITY NC
500 AM EDT SAT MAR 25 2017

NOTE: "FAIR" INDICATES FEW OR NO CLOUDS BELOW 12,000 FEET
WITH NO SIGNIFICANT WEATHER AND/OR OBSTRUCTIONS TO VISIBILITY

NCZ015>017-031-032-045>047-102-103-251000-
NORTH COAST

CITY           SKY/WX    TMP DP  RH WIND       PRES   REMARKS
EDENTON        PTCLDY    57  50  77 SW7       30.31F
ELIZABETH CITY CLEAR     55  49  80 S8        30.30F
KITTY HAWK     NOT AVBL
MANTEO         CLEAR     54  49  85 SW9       30.32S

$$

NCZ045>047-081-094-103-104-251000-
CENTRAL COAST

CITY           SKY/WX    TMP DP  RH WIND       PRES   REMARKS
FRISCO         PTCLDY    61  52  72 W9        30.33F

$$

NCZ095-097-098-100-101-251000-
SOUTHERN COAST

CITY           SKY/WX    TMP DP  RH WIND       PRES   REMARKS
BEAUFORT       CLEAR     59  54  83 S7        30.34F
CEDAR ISLAND   NOT AVBL
JACKSONVILLE   PTCLDY    57  51  80 S6        30.32F
PINEY ISLAND   SUNNY    N/A N/A N/A SW6       30.33F
WILMINGTON     CLOUDY    50  48  93 CALM      30.33F


$$

NCZ011>013-027>030-043-044-078>080-089-090>093-098-251000-
COASTAL PLAIN

CITY           SKY/WX    TMP DP  RH WIND       PRES   REMARKS
AHOSKIE          N/A     54  48  82 SW3       30.29F
CLINTON        PTCLDY    53  51  94 CALM      30.32F
ELIZABETHTOWN  PTCLDY    53  51  92 S3        30.32S
GOLDSBORO      MOCLDY    54  53  94 CALM      30.29F
GREENVILLE     CLOUDY    55  50  82 SW6       30.31F
HAVELOCK       CLEAR     52  48  86 CALM      30.34F
KENANSVILLE    CLOUDY    52  50  93 CALM      30.32F
KINSTON        MOCLDY    55  50  84 S6        30.32F
NEW BERN       CLEAR     54  50  86 S6        30.34S
RICHLANDS      CLOUDY    50  49  96 S5        30.33F
ROCKY MOUNT    CLOUDY    54  50  86 S6        30.30F
WASHINGTON     CLOUDY    55  49  80 SW3       30.32S
WHITEVILLE     MOCLDY    49  47  93 CALM      30.31F

$$

AMZ130-135-150-152-154-156-158-170-250-252-270-ANZ085-086-088-633-658-670-251000-
MARINE OBSERVATIONS

STATION/POSITION TIME  TEMP    WIND        PRES    WAVE   SWELL
                       AIR SEA DIR/SP/G            HT/PER HT/PER
                 (UTC) (F)     (DEG/KT/KT) (MB)    (FT/S) (FT/S)
CHESAPEAKE LIGHT NOT AVBL
64 E VA BEACH    0850   53 51  210/ 14/ 14 1025.5    4/ 5   2/11
DUCK             0900   56 47  220/ 12/ 14 1025.6
2 E DUCK         0900      48                N/A     2/10
OREGON INLET     0900   53 54  190/  7/  8 1026.9
13E OREGON INLT  NOT AVBL
HATTERAS CG      0900   60 54  230/  8/ 12 1026.8
DIAMOND BUOY     0850   69 76  230/ 19/ 23 1027.0    4/ 5   2/10
CAPE LOOKOUT     0900   65     220/  7/ 11 1027.1
BEAUFORT LAB     0900   58 52  200/  5/  7 1026.2
30 SE NEW RVR IN 0908   65     250/  6/  8 1027.3
30 SE NEW RVR IN 0913      65                N/A     3/10
27 SE WRIGHTSVLE 0908   63 62  220/  4/  6 1026.6
5 SE WRIGHTSVLE  0908   61 57  190/  6/ 10 1026.7
225 S CAPE HAT   0850   64 73  120/  8/ 12 1028.0    5/ 8   5/ 8
41 SE CHARLESTON 0850   69 71  150/ 12/ 17 1025.8    5/ 7   3/ 7

$$



USA.gov is the U.S. government's official web portal to all federal, state and local government web resources and services.